Tracking 31027 objects as of 19-Jul-2025
HD Live streaming from Space Station
objects crossing your sky now

COSMOS 1579 FUEL CORE

Track COSMOS 1579 FUEL CORE now!
10-day predictions


NORAD ID: 15330
Int'l Code: 1984-069D
Perigee: 921.6 km
Apogee: 950.6 km
Inclination: 65.1 °
Period: 103.6 minutes
Semi major axis: 7307 km
RCS: 0.1745 m2 (medium)
Launch date: June 29, 1984
Source: Commonwealth of Independent States (former USSR) (CIS)
Launch site: TYURATAM MISSILE AND SPACE COMPLEX (TTMTR)

Note: This is SATELLITE DEBRIS
Your satellite tracking list
STARLINK-3349
Track 1 satellite(s)




NASA's NSSDC Master Catalog

Two Line Element Set (TLE):
1 15330U 84069D   25199.63388451 -.00000078  00000-0  92336-5 0  9997
2 15330  65.0570 338.3491 0019797  67.4043 304.6954 13.89910320 85702
Source of the keplerian elements: AFSPC